Location: Foligno
(42.9600°N, 12.7050°E)
Time: 06:34:23
(UTC+01:00)

ISS - Pass Details

Date: 15 November 2018
Orbit: 402 x 408 km, 51.6° (Epoch: 17 November)

Event Time Altitude Azimuth Distance (km) Brightness Sun altitude
Exits shadow 04:55:27 28° 153° (SSE) 799 -2.1 -23.0°
Drops below altitude 10° 04:57:12 10° 140° (SE) 1,455 -0.5 -22.7°
Sets 04:59:17 0° 136° (SE) 2,312 0.8 -22.3°
